When you browse on this site, cookies collect data to enhance your experience and personalize the content and advertising you see.
Visit our Privacy Policy to learn more. By continuing to use the site, you agree to this use of cookies and data.
  • In Portugal
  • List of Countries
  • For 7 days
  • Water Temperature
  • Satellite Maps
  • Weather Map
  • Weather Widgets
  • user-avatar
    Login

    Hourly Weather Patoka

    Today, 20 May, Monday

    Time Temperature Precipitation Wind Pressure Humidity
    00:00 +15°C° 0 mm 1 mps 740 mmHg 90%
    01:00 +14°C° 0 mm 1 mps 740 mmHg 91%
    02:00 +13°C° 0 mm 0 mps 740 mmHg 90%
    03:00 +12°C° 0 mm 0 mps 740 mmHg 90%
    04:00 +12°C° 0 mm 0 mps 739 mmHg 90%
    05:00 +13°C° 0 mm 0 mps 739 mmHg 88%
    06:00 +14°C° 0 mm 0 mps 739 mmHg 85%
    07:00 +16°C° 0 mm 0 mps 739 mmHg 83%
    08:00 +15°C° 0.3 mm 0 mps 739 mmHg 85%
    09:00 +15°C° 0.3 mm 0 mps 739 mmHg 87%
    10:00 +15°C° 0.3 mm 0 mps 739 mmHg 89%
    11:00 +19°C° 0.1 mm 1 mps 739 mmHg 83%
    12:00 +20°C° 0.1 mm 1 mps 739 mmHg 77%
    13:00 +21°C° 0.1 mm 2 mps 739 mmHg 71%
    14:00 +21°C° 0 mm 2 mps 739 mmHg 67%
    15:00 +23°C° 0 mm 2 mps 739 mmHg 64%
    16:00 +23°C° 0 mm 2 mps 738 mmHg 60%
    17:00 +21°C° 0.1 mm 2 mps 738 mmHg 66%
    18:00 +20°C° 0.1 mm 2 mps 738 mmHg 72%
    19:00 +19°C° 0.1 mm 2 mps 738 mmHg 78%
    20:00 +17°C° 0 mm 2 mps 739 mmHg 82%
    21:00 +16°C° 0 mm 2 mps 739 mmHg 86%
    22:00 +15°C° 0 mm 2 mps 739 mmHg 90%
    23:00 +14°C° 0 mm 2 mps 739 mmHg 91%

    Tomorrow, 21 May, Tuesday

    Time Temperature Precipitation Wind Pressure Humidity
    00:00 +14°C° 0 mm 2 mps 740 mmHg 91%
    01:00 +13°C° 0 mm 1 mps 740 mmHg 92%
    02:00 +13°C° 0 mm 1 mps 740 mmHg 92%
    03:00 +12°C° 0 mm 1 mps 740 mmHg 93%
    04:00 +12°C° 0 mm 1 mps 740 mmHg 93%
    05:00 +14°C° 0 mm 1 mps 740 mmHg 87%
    06:00 +15°C° 0 mm 1 mps 740 mmHg 81%
    07:00 +18°C° 0 mm 1 mps 741 mmHg 75%
    08:00 +20°C° 0 mm 1 mps 741 mmHg 68%
    09:00 +21°C° 0 mm 1 mps 741 mmHg 62%
    10:00 +23°C° 0 mm 1 mps 741 mmHg 55%
    11:00 +24°C° 0 mm 1 mps 741 mmHg 52%
    12:00 +24°C° 0 mm 1 mps 741 mmHg 50%
    13:00 +25°C° 0 mm 1 mps 741 mmHg 47%
    14:00 +25°C° 0 mm 2 mps 740 mmHg 49%
    15:00 +24°C° 0 mm 2 mps 740 mmHg 52%
    16:00 +24°C° 0 mm 2 mps 740 mmHg 54%
    17:00 +23°C° 0 mm 2 mps 740 mmHg 61%
    18:00 +21°C° 0 mm 1 mps 740 mmHg 68%
    19:00 +20°C° 0 mm 1 mps 740 mmHg 75%
    20:00 +19°C° 0.3 mm 1 mps 740 mmHg 80%
    21:00 +17°C° 0.3 mm 2 mps 741 mmHg 85%
    22:00 +16°C° 0.3 mm 3 mps 741 mmHg 89%
    23:00 +16°C° 1.8 mm 3 mps 741 mmHg 91%

    Day after tomorrow, 22 May, Wednesday

    Time Temperature Precipitation Wind Pressure Humidity
    00:00 +15°C° 1.8 mm 4 mps 741 mmHg 93%
    01:00 +15°C° 1.8 mm 4 mps 741 mmHg 95%
    02:00 +15°C° 0.9 mm 4 mps 741 mmHg 96%
    03:00 +15°C° 0.9 mm 5 mps 741 mmHg 96%
    04:00 +15°C° 0.9 mm 5 mps 741 mmHg 96%
    05:00 +15°C° 0.8 mm 5 mps 741 mmHg 95%
    06:00 +15°C° 0.8 mm 5 mps 741 mmHg 93%
    07:00 +16°C° 0.8 mm 6 mps 742 mmHg 92%
    08:00 +16°C° 0.3 mm 6 mps 742 mmHg 92%
    09:00 +16°C° 0.3 mm 6 mps 742 mmHg 91%
    10:00 +16°C° 0.3 mm 6 mps 742 mmHg 91%
    11:00 +16°C° 0.4 mm 6 mps 743 mmHg 91%
    12:00 +16°C° 0.4 mm 6 mps 743 mmHg 91%
    13:00 +16°C° 0.4 mm 6 mps 743 mmHg 91%
    14:00 +15°C° 0.6 mm 6 mps 743 mmHg 92%
    15:00 +15°C° 0.6 mm 7 mps 743 mmHg 92%
    16:00 +15°C° 0.6 mm 7 mps 744 mmHg 93%
    17:00 +15°C° 0.1 mm 7 mps 744 mmHg 93%
    18:00 +14°C° 0.1 mm 7 mps 744 mmHg 94%
    19:00 +12°C° 0.1 mm 7 mps 744 mmHg 94%
    20:00 +12°C° 0.1 mm 7 mps 745 mmHg 94%
    21:00 +13°C° 0.1 mm 6 mps 745 mmHg 95%
    22:00 +13°C° 0.1 mm 6 mps 746 mmHg 95%
    23:00 +13°C° 0.2 mm 6 mps 746 mmHg 94%

    23 May, Thursday

    Time Temperature Precipitation Wind Pressure Humidity
    00:00 +11°C° 0.2 mm 6 mps 746 mmHg 93%
    01:00 +11°C° 0.2 mm 7 mps 747 mmHg 92%
    02:00 +10°C° 0.2 mm 7 mps 747 mmHg 91%
    03:00 +9°C° 0.2 mm 6 mps 748 mmHg 90%
    04:00 +8°C° 0.2 mm 6 mps 748 mmHg 89%
    05:00 +8°C° 0.1 mm 6 mps 749 mmHg 89%
    06:00 +7°C° 0.1 mm 6 mps 749 mmHg 88%
    07:00 +7°C° 0.1 mm 5 mps 750 mmHg 88%
    08:00 +8°C° 0 mm 5 mps 750 mmHg 84%
    09:00 +8°C° 0 mm 5 mps 750 mmHg 81%
    10:00 +9°C° 0 mm 5 mps 751 mmHg 77%
    11:00 +12°C° 0 mm 5 mps 751 mmHg 67%
    12:00 +15°C° 0 mm 5 mps 751 mmHg 57%
    13:00 +17°C° 0 mm 5 mps 751 mmHg 47%
    14:00 +17°C° 0 mm 5 mps 750 mmHg 47%
    15:00 +17°C° 0 mm 5 mps 750 mmHg 47%
    16:00 +19°C° 0 mm 5 mps 750 mmHg 48%
    17:00 +17°C° 0 mm 4 mps 750 mmHg 54%
    18:00 +16°C° 0 mm 3 mps 750 mmHg 61%
    19:00 +15°C° 0 mm 2 mps 750 mmHg 68%
    20:00 +14°C° 0 mm 2 mps 750 mmHg 71%
    21:00 +12°C° 0 mm 2 mps 750 mmHg 75%
    22:00 +10°C° 0 mm 2 mps 750 mmHg 78%
    23:00 +10°C° 0 mm 2 mps 750 mmHg 80%

    24 May, Friday

    Time Temperature Precipitation Wind Pressure Humidity
    00:00 +10°C° 0 mm 2 mps 750 mmHg 82%
    01:00 +10°C° 0 mm 2 mps 750 mmHg 84%
    02:00 +9°C° 0 mm 2 mps 750 mmHg 85%
    03:00 +9°C° 0 mm 2 mps 750 mmHg 86%
    04:00 +9°C° 0 mm 2 mps 749 mmHg 87%
    05:00 +10°C° 0 mm 2 mps 749 mmHg 82%
    06:00 +12°C° 0 mm 3 mps 749 mmHg 78%
    07:00 +13°C° 0 mm 3 mps 749 mmHg 74%
    08:00 +16°C° 0 mm 3 mps 749 mmHg 67%
    09:00 +17°C° 0 mm 3 mps 748 mmHg 59%
    10:00 +19°C° 0 mm 3 mps 748 mmHg 52%
    11:00 +20°C° 0 mm 3 mps 748 mmHg 49%
    12:00 +20°C° 0 mm 2 mps 747 mmHg 47%
    13:00 +21°C° 0 mm 2 mps 747 mmHg 44%
    14:00 +21°C° 0 mm 2 mps 746 mmHg 46%
    15:00 +21°C° 0 mm 2 mps 746 mmHg 48%
    16:00 +21°C° 0 mm 2 mps 746 mmHg 50%
    17:00 +20°C° 0 mm 2 mps 745 mmHg 56%
    18:00 +19°C° 0 mm 2 mps 745 mmHg 61%
    19:00 +18°C° 0 mm 2 mps 745 mmHg 67%
    20:00 +16°C° 0 mm 2 mps 745 mmHg 71%
    21:00 +15°C° 0 mm 2 mps 745 mmHg 75%
    22:00 +13°C° 0 mm 2 mps 745 mmHg 79%
    23:00 +13°C° 0 mm 2 mps 744 mmHg 81%

    25 May, Saturday

    Time Temperature Precipitation Wind Pressure Humidity
    00:00 +12°C° 0 mm 1 mps 744 mmHg 84%
    01:00 +12°C° 0 mm 1 mps 744 mmHg 86%
    02:00 +12°C° 0 mm 1 mps 744 mmHg 87%
    03:00 +11°C° 0 mm 1 mps 744 mmHg 87%
    04:00 +11°C° 0 mm 1 mps 744 mmHg 88%
    05:00 +13°C° 0 mm 1 mps 744 mmHg 81%
    06:00 +15°C° 0 mm 1 mps 745 mmHg 74%
    07:00 +18°C° 0 mm 1 mps 745 mmHg 68%
    08:00 +20°C° 0 mm 1 mps 745 mmHg 63%
    09:00 +20°C° 0 mm 2 mps 745 mmHg 57%
    10:00 +21°C° 0 mm 2 mps 745 mmHg 52%
    11:00 +23°C° 0.3 mm 2 mps 745 mmHg 53%
    12:00 +23°C° 0.3 mm 2 mps 745 mmHg 54%
    13:00 +23°C° 0.3 mm 2 mps 745 mmHg 55%
    14:00 +22°C° 0.5 mm 3 mps 745 mmHg 57%
    15:00 +22°C° 0.5 mm 3 mps 745 mmHg 60%
    16:00 +22°C° 0.5 mm 3 mps 745 mmHg 62%
    17:00 +20°C° 0.4 mm 2 mps 746 mmHg 69%
    18:00 +19°C° 0.4 mm 2 mps 746 mmHg 76%
    19:00 +18°C° 0.4 mm 2 mps 746 mmHg 83%
    20:00 +17°C° 0.1 mm 2 mps 747 mmHg 85%
    21:00 +16°C° 0.1 mm 2 mps 747 mmHg 86%
    22:00 +15°C° 0.1 mm 2 mps 747 mmHg 88%
    23:00 +15°C° 0 mm 1 mps 747 mmHg 90%
    Show more